Location: *
(49.3500°N, 12.6000°E)
Time: 22:37:43
(UTC+00:00)

ASTEX 1 - Pass Details

Date: 18 October 2019
Orbit: 722 x 742 km, 92.7° (Epoch: 17 November)

Event Time Altitude Azimuth Distance (km) Brightness Sun altitude
Rises 17:03:56 0° 8° (N) 3,167 6.6 -8.8°
Reaches altitude 10° 17:06:16 10° 12° (NNE) 2,243 5.8 -9.2°
Maximum altitude 17:11:11 63° 93° (E) 822 3.4 -10.0°
Drops below altitude 10° 17:16:06 10° 175° (S) 2,239 5.9 -10.8°
Sets 17:18:25 0° 178° (S) 3,159 6.7 -11.2°
